• In Austria
  • List of Countries
  • For 7 days
  • Water Temperature
  • Satellite Maps
  • Weather Map
  • News
  • Weather Widgets
  • user-avatar
    Login

    Hourly Weather Oran

    Today, 18 October, Wednesday

    Time Temperature Precipitation Wind Pressure Humidity
    00:00 +25°C° 0 mm 2 mps 754 mmHg 53%
    01:00 +25°C° 0 mm 2 mps 753 mmHg 51%
    02:00 +25°C° 0 mm 2 mps 753 mmHg 49%
    03:00 +25°C° 0 mm 2 mps 752 mmHg 48%
    04:00 +25°C° 0 mm 3 mps 752 mmHg 45%
    05:00 +25°C° 0 mm 3 mps 752 mmHg 43%
    06:00 +25°C° 0 mm 4 mps 752 mmHg 41%
    07:00 +26°C° 0 mm 4 mps 752 mmHg 38%
    08:00 +27°C° 0 mm 4 mps 752 mmHg 35%
    09:00 +28°C° 0 mm 4 mps 752 mmHg 32%
    10:00 +29°C° 0 mm 5 mps 751 mmHg 34%
    11:00 +29°C° 0 mm 6 mps 751 mmHg 35%
    12:00 +30°C° 0 mm 7 mps 751 mmHg 36%
    13:00 +29°C° 0.1 mm 7 mps 751 mmHg 41%
    14:00 +27°C° 0.1 mm 7 mps 750 mmHg 47%
    15:00 +26°C° 0.1 mm 7 mps 750 mmHg 52%
    16:00 +24°C° 0.3 mm 6 mps 750 mmHg 56%
    17:00 +25°C° 0.3 mm 5 mps 750 mmHg 59%
    18:00 +23°C° 0.3 mm 5 mps 750 mmHg 63%
    19:00 +23°C° 0.8 mm 5 mps 751 mmHg 63%
    20:00 +23°C° 0.8 mm 5 mps 751 mmHg 63%
    21:00 +23°C° 0.8 mm 5 mps 751 mmHg 63%
    22:00 +22°C° 0.8 mm 5 mps 751 mmHg 64%
    23:00 +22°C° 0.8 mm 5 mps 751 mmHg 64%

    Tomorrow, 19 October, Thursday

    Time Temperature Precipitation Wind Pressure Humidity
    00:00 +22°C° 0.8 mm 6 mps 751 mmHg 65%
    01:00 +22°C° 0.4 mm 6 mps 750 mmHg 65%
    02:00 +21°C° 0.4 mm 6 mps 750 mmHg 65%
    03:00 +21°C° 0.4 mm 6 mps 749 mmHg 65%
    04:00 +21°C° 2.7 mm 6 mps 749 mmHg 67%
    05:00 +21°C° 2.7 mm 6 mps 750 mmHg 69%
    06:00 +20°C° 2.7 mm 6 mps 750 mmHg 72%
    07:00 +20°C° 2.8 mm 6 mps 750 mmHg 73%
    08:00 +20°C° 2.8 mm 7 mps 750 mmHg 74%
    09:00 +20°C° 2.8 mm 7 mps 750 mmHg 75%
    10:00 +21°C° 1.6 mm 8 mps 750 mmHg 71%
    11:00 +22°C° 1.6 mm 9 mps 750 mmHg 66%
    12:00 +22°C° 1.6 mm 9 mps 750 mmHg 62%
    13:00 +23°C° 0.7 mm 9 mps 750 mmHg 62%
    14:00 +23°C° 0.7 mm 9 mps 749 mmHg 62%
    15:00 +23°C° 0.7 mm 10 mps 749 mmHg 62%
    16:00 +23°C° 1 mm 9 mps 749 mmHg 64%
    17:00 +22°C° 1 mm 9 mps 750 mmHg 66%
    18:00 +22°C° 1 mm 9 mps 750 mmHg 68%
    19:00 +22°C° 0.7 mm 8 mps 750 mmHg 69%
    20:00 +22°C° 0.7 mm 8 mps 751 mmHg 69%
    21:00 +22°C° 0.7 mm 8 mps 751 mmHg 70%
    22:00 +21°C° 0.9 mm 8 mps 751 mmHg 71%
    23:00 +21°C° 0.9 mm 8 mps 751 mmHg 73%

    Day after tomorrow, 20 October, Friday

    Time Temperature Precipitation Wind Pressure Humidity
    00:00 +21°C° 0.9 mm 8 mps 751 mmHg 75%
    01:00 +21°C° 0.5 mm 7 mps 751 mmHg 76%
    02:00 +20°C° 0.5 mm 7 mps 751 mmHg 78%
    03:00 +20°C° 0.5 mm 7 mps 751 mmHg 80%
    04:00 +20°C° 0.3 mm 7 mps 752 mmHg 80%
    05:00 +20°C° 0.3 mm 6 mps 752 mmHg 81%
    06:00 +20°C° 0.3 mm 6 mps 752 mmHg 82%
    07:00 +21°C° 0.2 mm 7 mps 753 mmHg 78%
    08:00 +22°C° 0.2 mm 7 mps 753 mmHg 74%
    09:00 +22°C° 0.2 mm 7 mps 754 mmHg 70%
    10:00 +23°C° 0 mm 7 mps 754 mmHg 67%
    11:00 +24°C° 0 mm 7 mps 754 mmHg 64%
    12:00 +24°C° 0 mm 7 mps 754 mmHg 61%
    13:00 +24°C° 0 mm 7 mps 754 mmHg 60%
    14:00 +24°C° 0 mm 7 mps 754 mmHg 59%
    15:00 +24°C° 0 mm 6 mps 753 mmHg 59%
    16:00 +25°C° 0 mm 5 mps 754 mmHg 62%
    17:00 +23°C° 0 mm 4 mps 754 mmHg 65%
    18:00 +24°C° 0 mm 3 mps 754 mmHg 68%
    19:00 +22°C° 0 mm 3 mps 755 mmHg 69%
    20:00 +22°C° 0 mm 3 mps 755 mmHg 70%
    21:00 +22°C° 0 mm 3 mps 756 mmHg 72%
    22:00 +21°C° 0 mm 2 mps 756 mmHg 71%
    23:00 +21°C° 0 mm 2 mps 756 mmHg 71%

    21 October, Saturday

    Time Temperature Precipitation Wind Pressure Humidity
    00:00 +21°C° 0 mm 2 mps 756 mmHg 70%
    01:00 +21°C° 0 mm 2 mps 755 mmHg 71%
    02:00 +20°C° 0 mm 2 mps 755 mmHg 71%
    03:00 +21°C° 0 mm 1 mps 755 mmHg 72%
    04:00 +21°C° 0 mm 1 mps 755 mmHg 71%
    05:00 +21°C° 0 mm 1 mps 755 mmHg 71%
    06:00 +20°C° 0 mm 1 mps 755 mmHg 71%
    07:00 +22°C° 0 mm 1 mps 756 mmHg 64%
    08:00 +23°C° 0 mm 1 mps 756 mmHg 56%
    09:00 +25°C° 0 mm 1 mps 757 mmHg 49%
    10:00 +26°C° 0 mm 1 mps 757 mmHg 45%
    11:00 +25°C° 0 mm 0 mps 756 mmHg 42%
    12:00 +26°C° 0 mm 0 mps 756 mmHg 38%
    13:00 +28°C° 0 mm 1 mps 756 mmHg 38%
    14:00 +28°C° 0 mm 2 mps 755 mmHg 37%
    15:00 +29°C° 0 mm 2 mps 755 mmHg 37%
    16:00 +28°C° 0 mm 2 mps 755 mmHg 42%
    17:00 +27°C° 0 mm 2 mps 755 mmHg 47%
    18:00 +26°C° 0 mm 2 mps 755 mmHg 52%
    19:00 +25°C° 0 mm 1 mps 755 mmHg 55%
    20:00 +25°C° 0 mm 1 mps 756 mmHg 57%
    21:00 +24°C° 0 mm 1 mps 756 mmHg 60%
    22:00 +24°C° 0 mm 1 mps 756 mmHg 61%
    23:00 +24°C° 0 mm 1 mps 756 mmHg 62%

    22 October, Sunday

    Time Temperature Precipitation Wind Pressure Humidity
    00:00 +21°C° 0 mm 0 mps 755 mmHg 63%
    01:00 +23°C° 0 mm 1 mps 755 mmHg 65%
    02:00 +23°C° 0 mm 1 mps 755 mmHg 66%
    03:00 +22°C° 0 mm 1 mps 755 mmHg 68%
    04:00 +20°C° 0 mm 0 mps 755 mmHg 69%
    05:00 +20°C° 0 mm 0 mps 755 mmHg 70%
    06:00 +19°C° 0 mm 0 mps 755 mmHg 71%
    07:00 +21°C° 0 mm 0 mps 755 mmHg 65%
    08:00 +22°C° 0 mm 0 mps 756 mmHg 59%
    09:00 +23°C° 0 mm 0 mps 756 mmHg 54%
    10:00 +26°C° 0 mm 1 mps 756 mmHg 50%
    11:00 +27°C° 0 mm 1 mps 756 mmHg 47%
    12:00 +28°C° 0 mm 2 mps 756 mmHg 43%
    13:00 +28°C° 0 mm 3 mps 755 mmHg 44%
    14:00 +28°C° 0 mm 3 mps 755 mmHg 45%
    15:00 +28°C° 0 mm 4 mps 755 mmHg 45%
    16:00 +27°C° 0 mm 4 mps 755 mmHg 50%
    17:00 +26°C° 0 mm 3 mps 755 mmHg 54%
    18:00 +25°C° 0 mm 3 mps 755 mmHg 58%
    19:00 +25°C° 0 mm 3 mps 756 mmHg 61%
    20:00 +24°C° 0 mm 3 mps 756 mmHg 63%
    21:00 +24°C° 0 mm 2 mps 756 mmHg 66%
    22:00 +24°C° 0 mm 2 mps 756 mmHg 67%
    23:00 +23°C° 0 mm 2 mps 756 mmHg 69%

    23 October, Monday

    Time Temperature Precipitation Wind Pressure Humidity
    00:00 +23°C° 0 mm 2 mps 755 mmHg 70%
    01:00 +23°C° 0 mm 2 mps 755 mmHg 71%
    02:00 +21°C° 0 mm 2 mps 755 mmHg 72%
    03:00 +21°C° 0 mm 2 mps 755 mmHg 73%
    04:00 +21°C° 0 mm 2 mps 755 mmHg 74%
    05:00 +20°C° 0 mm 2 mps 755 mmHg 74%
    06:00 +20°C° 0 mm 2 mps 755 mmHg 75%
    07:00 +21°C° 0 mm 2 mps 755 mmHg 68%
    08:00 +24°C° 0 mm 2 mps 755 mmHg 62%
    09:00 +25°C° 0 mm 2 mps 755 mmHg 55%
    10:00 +26°C° 0 mm 3 mps 755 mmHg 51%
    11:00 +27°C° 0 mm 3 mps 755 mmHg 47%
    12:00 +28°C° 0 mm 4 mps 754 mmHg 42%
    13:00 +28°C° 0 mm 4 mps 754 mmHg 41%
    14:00 +29°C° 0 mm 4 mps 754 mmHg 41%
    15:00 +29°C° 0 mm 4 mps 753 mmHg 40%
    16:00 +28°C° 0 mm 4 mps 753 mmHg 44%
    17:00 +27°C° 0 mm 4 mps 753 mmHg 49%
    18:00 +26°C° 0 mm 4 mps 753 mmHg 53%
    19:00 +25°C° 0 mm 4 mps 754 mmHg 56%
    20:00 +25°C° 0 mm 4 mps 754 mmHg 59%
    21:00 +24°C° 0 mm 3 mps 754 mmHg 61%
    22:00 +24°C° 0 mm 3 mps 754 mmHg 63%
    23:00 +24°C° 0 mm 3 mps 754 mmHg 64%
    Show more